Time,TemperatureF,DewpointF,PressureIn,WindDirection,WindDirectionDegrees,WindSpeedMPH,WindSpeedGustMPH,Humidity,HourlyPrecipIn,Conditions,Clouds,dailyrainin,SoftwareType,DateUTC
2013-05-11 07:10:00,58.3,53.2,29.96,NNE,27,0.0,5.0,83,0.00,,,0.00,Wunderground v.1.15,2013-05-11 11:10:00,
2013-05-11 07:15:00,58.3,53.2,29.96,NNE,27,0.0,5.0,83,0.00,,,0.00,Wunderground v.1.15,2013-05-11 11:15:00,
2013-05-11 07:20:00,58.3,53.8,29.96,NNE,27,0.0,5.0,85,0.00,,,0.00,Wunderground v.1.15,2013-05-11 11:20:00,
2013-05-11 07:25:00,58.4,53.9,29.96,NNE,27,0.0,5.0,85,0.00,,,0.00,Wunderground v.1.15,2013-05-11 11:25:00,
2013-05-11 07:30:00,58.5,54.0,29.96,NNE,27,0.0,5.0,85,0.00,,,0.00,Wunderground v.1.15,2013-05-11 11:30:00,
2013-05-11 07:35:00,58.6,54.1,29.96,NNE,27,0.0,5.0,85,0.00,,,0.00,Wunderground v.1.15,2013-05-11 11:35:00,
2013-05-11 07:40:00,58.6,54.4,29.96,NNE,27,0.0,5.0,86,0.00,,,0.00,Wunderground v.1.15,2013-05-11 11:40:00,
2013-05-11 07:45:00,58.7,54.2,29.96,NNE,27,0.0,5.0,85,0.00,,,0.00,Wunderground v.1.15,2013-05-11 11:45:00,
2013-05-11 07:50:00,58.8,54.6,29.96,East,90,0.0,5.0,86,0.00,,,0.00,Wunderground v.1.15,2013-05-11 11:50:00,
2013-05-11 07:55:00,59.0,54.8,29.97,East,90,0.0,5.0,86,0.00,,,0.00,Wunderground v.1.15,2013-05-11 11:55:00,
2013-05-11 08:05:00,59.1,54.9,29.97,East,90,0.0,5.0,86,0.00,,,0.00,Wunderground v.1.15,2013-05-11 12:05:00,
2013-05-11 08:10:00,59.2,55.0,29.97,East,90,0.0,5.0,86,0.00,,,0.00,Wunderground v.1.15,2013-05-11 12:10:00,
2013-05-11 08:15:00,59.3,55.1,29.97,East,90,0.0,5.0,86,0.00,,,0.00,Wunderground v.1.15,2013-05-11 12:15:00,
2013-05-11 08:20:00,59.4,55.2,29.97,East,90,0.0,5.0,86,0.00,,,0.00,Wunderground v.1.15,2013-05-11 12:20:00,
2013-05-11 08:25:00,59.3,55.1,29.97,East,90,0.0,5.0,86,0.00,,,0.00,Wunderground v.1.15,2013-05-11 12:25:00,
2013-05-11 08:30:00,59.3,55.1,29.97,East,90,0.0,5.0,86,0.00,,,0.00,Wunderground v.1.15,2013-05-11 12:30:00,
2013-05-11 08:35:00,59.4,54.9,29.97,East,90,0.0,5.0,85,0.00,,,0.00,Wunderground v.1.15,2013-05-11 12:35:00,
2013-05-11 08:40:00,59.6,55.4,29.97,East,90,0.0,5.0,86,0.00,,,0.00,Wunderground v.1.15,2013-05-11 12:40:00,
2013-05-11 08:45:00,59.9,55.4,29.97,East,90,0.0,5.0,85,0.00,,,0.00,Wunderground v.1.15,2013-05-11 12:45:00,
2013-05-11 08:50:00,60.2,55.3,29.97,East,90,0.0,5.0,84,0.00,,,0.00,Wunderground v.1.15,2013-05-11 12:50:00,
2013-05-11 08:55:00,60.6,55.7,29.97,East,91,0.0,5.0,84,0.00,,,0.00,Wunderground v.1.15,2013-05-11 12:55:00,
2013-05-11 09:05:00,61.2,55.7,29.97,East,92,0.0,5.0,82,0.00,,,0.00,Wunderground v.1.15,2013-05-11 13:05:00,
2013-05-11 09:10:00,61.4,54.8,29.97,SE,136,0.0,5.0,79,0.00,,,0.00,Wunderground v.1.15,2013-05-11 13:10:00,
2013-05-11 09:15:00,61.4,54.8,29.97,North,5,1.0,1.0,79,0.00,,,0.00,Wunderground v.1.15,2013-05-11 13:15:00,
2013-05-11 09:20:00,61.4,54.8,29.97,North,5,1.0,5.0,79,0.00,,,0.00,Wunderground v.1.15,2013-05-11 13:20:00,
2013-05-11 09:25:00,61.5,55.3,29.97,North,5,0.0,5.0,80,0.00,,,0.00,Wunderground v.1.15,2013-05-11 13:25:00,
2013-05-11 09:30:00,61.6,54.7,29.97,North,5,0.0,5.0,78,0.00,,,0.00,Wunderground v.1.15,2013-05-11 13:30:00,
2013-05-11 09:35:00,61.8,55.2,29.98,North,5,0.0,5.0,79,0.00,,,0.00,Wunderground v.1.15,2013-05-11 13:35:00,
2013-05-11 09:40:00,62.0,55.8,29.97,North,5,0.0,5.0,80,0.00,,,0.00,Wunderground v.1.15,2013-05-11 13:40:00,
2013-05-11 09:45:00,62.2,54.9,29.97,North,5,0.0,5.0,77,0.00,,,0.00,Wunderground v.1.15,2013-05-11 13:45:00,
2013-05-11 09:50:00,62.3,55.0,29.97,SSE,161,0.0,5.0,77,0.00,,,0.00,Wunderground v.1.15,2013-05-11 13:50:00,
2013-05-11 09:55:00,62.4,55.4,29.98,SSW,192,1.0,1.0,78,0.00,,,0.00,Wunderground v.1.15,2013-05-11 13:55:00,
2013-05-11 10:05:00,62.5,55.5,29.97,South,190,0.0,5.0,78,0.00,,,0.00,Wunderground v.1.15,2013-05-11 14:05:00,
2013-05-11 10:10:00,62.9,56.3,29.98,South,190,0.0,5.0,79,0.00,,,0.00,Wunderground v.1.15,2013-05-11 14:10:00,
2013-05-11 10:15:00,63.2,55.5,29.98,South,190,0.0,5.0,76,0.00,,,0.00,Wunderground v.1.15,2013-05-11 14:15:00,
2013-05-11 10:20:00,63.6,55.9,29.98,South,190,0.0,5.0,76,0.00,,,0.00,Wunderground v.1.15,2013-05-11 14:20:00,
2013-05-11 10:25:00,64.1,55.6,29.98,South,190,0.0,5.0,74,0.00,,,0.00,Wunderground v.1.15,2013-05-11 14:25:00,
2013-05-11 10:30:00,64.3,55.8,29.97,ESE,121,0.0,5.0,74,0.00,,,0.00,Wunderground v.1.15,2013-05-11 14:30:00,
2013-05-11 14:16:00,66.0,60.3,29.93,SW,221,0.0,5.0,82,0.00,,,0.05,Wunderground v.1.15,2013-05-11 18:16:00,
2013-05-11 14:20:00,66.3,59.6,29.92,SW,221,0.0,5.0,79,0.00,,,0.05,Wunderground v.1.15,2013-05-11 18:20:00,
2013-05-11 14:25:00,67.0,58.4,29.92,SW,221,0.0,5.0,74,0.00,,,0.05,Wunderground v.1.15,2013-05-11 18:25:00,
2013-05-11 14:30:00,67.6,59.0,29.92,SW,221,0.0,5.0,74,0.00,,,0.05,Wunderground v.1.15,2013-05-11 18:30:00,
2013-05-11 14:40:00,68.6,61.1,29.92,SW,227,0.0,5.0,77,0.00,,,0.05,Wunderground v.1.15,2013-05-11 18:40:00,
2013-05-11 14:45:00,69.2,61.7,29.92,WSW,249,0.0,5.0,77,0.00,,,0.05,Wunderground v.1.15,2013-05-11 18:45:00,
2013-05-11 14:50:00,69.6,60.6,29.92,ESE,117,0.0,5.0,73,0.00,,,0.05,Wunderground v.1.15,2013-05-11 18:50:00,
2013-05-11 14:55:00,70.1,60.7,29.92,South,175,0.0,5.0,72,0.00,,,0.05,Wunderground v.1.15,2013-05-11 18:55:00,
2013-05-11 15:05:00,69.4,60.0,29.92,South,175,1.0,1.0,72,0.00,,,0.05,Wunderground v.1.15,2013-05-11 19:05:00,
2013-05-11 15:10:00,69.1,59.3,29.91,SSE,158,0.0,5.0,71,0.00,,,0.05,Wunderground v.1.15,2013-05-11 19:10:00,
2013-05-11 15:15:00,69.3,59.9,29.91,SSE,158,0.0,5.0,72,0.00,,,0.05,Wunderground v.1.15,2013-05-11 19:15:00,
2013-05-11 15:20:00,69.5,59.7,29.91,SSE,158,0.0,5.0,71,0.00,,,0.05,Wunderground v.1.15,2013-05-11 19:20:00,
2013-05-11 15:25:00,69.6,60.2,29.92,SSE,158,0.0,5.0,72,0.00,,,0.05,Wunderground v.1.15,2013-05-11 19:25:00,
2013-05-11 15:30:00,69.9,60.8,29.91,SSE,158,0.0,5.0,73,0.00,,,0.05,Wunderground v.1.15,2013-05-11 19:30:00,
2013-05-11 15:35:00,70.2,60.7,29.91,SE,140,0.0,5.0,72,0.00,,,0.05,Wunderground v.1.15,2013-05-11 19:35:00,
2013-05-11 15:40:00,70.3,60.1,29.90,South,171,1.0,5.0,70,0.00,,,0.05,Wunderground v.1.15,2013-05-11 19:40:00,
2013-05-11 15:45:00,70.3,60.4,29.90,SSW,198,1.0,1.0,71,0.00,,,0.05,Wunderground v.1.15,2013-05-11 19:45:00,
2013-05-11 15:50:00,70.2,60.0,29.90,SW,217,1.0,2.0,70,0.00,,,0.05,Wunderground v.1.15,2013-05-11 19:50:00,
2013-05-11 15:55:00,69.7,59.9,29.90,SW,236,1.0,1.0,71,0.00,,,0.05,Wunderground v.1.15,2013-05-11 19:55:00,
2013-05-11 16:05:00,69.5,60.5,29.89,South,181,1.0,5.0,73,0.00,,,0.05,Wunderground v.1.15,2013-05-11 20:05:00,
2013-05-11 16:10:00,69.3,60.3,29.90,SSW,202,1.0,5.0,73,0.00,,,0.05,Wunderground v.1.15,2013-05-11 20:10:00,
2013-05-11 16:15:00,68.9,59.9,29.89,SSW,200,1.0,5.0,73,0.00,,,0.05,Wunderground v.1.15,2013-05-11 20:15:00,
2013-05-11 16:20:00,68.9,59.9,29.89,SSW,193,1.0,5.0,73,0.00,,,0.05,Wunderground v.1.15,2013-05-11 20:20:00,
2013-05-11 16:25:00,68.8,59.8,29.90,SSW,193,1.0,1.0,73,0.00,,,0.05,Wunderground v.1.15,2013-05-11 20:25:00,
2013-05-11 16:30:00,68.5,59.5,29.90,SW,232,1.0,5.0,73,0.00,,,0.05,Wunderground v.1.15,2013-05-11 20:30:00,
2013-05-11 16:35:00,68.3,59.7,29.90,WSW,242,1.0,5.0,74,0.00,,,0.05,Wunderground v.1.15,2013-05-11 20:35:00,
2013-05-11 16:40:00,68.6,60.0,29.89,WSW,237,1.0,5.0,74,0.00,,,0.05,Wunderground v.1.15,2013-05-11 20:40:00,
2013-05-11 16:45:00,69.6,60.6,29.89,WSW,250,2.0,2.0,73,0.00,,,0.05,Wunderground v.1.15,2013-05-11 20:45:00,
2013-05-11 16:50:00,70.1,59.9,29.88,East,96,1.0,5.0,70,0.00,,,0.05,Wunderground v.1.15,2013-05-11 20:50:00,
2013-05-11 16:55:00,70.0,60.9,29.89,SSW,200,1.0,5.0,73,0.00,,,0.05,Wunderground v.1.15,2013-05-11 20:55:00,
2013-05-11 17:05:00,70.3,59.6,29.88,SW,235,1.0,1.0,69,0.00,,,0.05,Wunderground v.1.15,2013-05-11 21:05:00,
2013-05-11 17:10:00,70.6,59.5,29.88,SW,235,1.0,5.0,68,0.00,,,0.05,Wunderground v.1.15,2013-05-11 21:10:00,
2013-05-11 17:15:00,70.9,59.8,29.87,SW,233,0.0,5.0,68,0.00,,,0.05,Wunderground v.1.15,2013-05-11 21:15:00,
2013-05-11 17:20:00,70.8,59.7,29.87,WSW,237,0.0,5.0,68,0.00,,,0.05,Wunderground v.1.15,2013-05-11 21:20:00,
2013-05-11 17:25:00,70.1,59.5,29.88,NNW,346,1.0,5.0,69,0.00,,,0.05,Wunderground v.1.15,2013-05-11 21:25:00,
2013-05-11 17:30:00,69.4,59.2,29.88,North,360,1.0,5.0,70,0.00,,,0.05,Wunderground v.1.15,2013-05-11 21:30:00,
2013-05-11 17:35:00,68.4,59.0,29.88,South,176,1.0,5.0,72,0.00,,,0.05,Wunderground v.1.15,2013-05-11 21:35:00,
2013-05-11 17:40:00,66.7,60.0,29.89,SSE,167,3.0,5.0,79,0.99,,,0.13,Wunderground v.1.15,2013-05-11 21:40:00,
2013-05-11 17:45:00,64.4,59.5,29.89,WSW,241,3.0,5.0,84,0.28,,,0.17,Wunderground v.1.15,2013-05-11 21:45:00,
2013-05-11 17:50:00,62.5,57.6,29.90,WSW,242,3.0,5.0,84,0.09,,,0.17,Wunderground v.1.15,2013-05-11 21:50:00,
2013-05-11 17:55:00,61.6,58.0,29.90,SSW,199,3.0,3.0,88,0.05,,,0.17,Wunderground v.1.15,2013-05-11 21:55:00,
2013-05-11 18:05:00,60.6,56.7,29.91,North,5,2.0,2.0,87,0.00,,,0.17,Wunderground v.1.15,2013-05-11 22:05:00,
2013-05-11 18:10:00,60.5,56.6,29.90,West,279,1.0,5.0,87,0.00,,,0.17,Wunderground v.1.15,2013-05-11 22:10:00,
2013-05-11 18:15:00,60.5,57.2,29.91,West,279,0.0,5.0,89,0.00,,,0.17,Wunderground v.1.15,2013-05-11 22:15:00,
2013-05-11 18:25:00,60.1,57.2,29.90,West,279,0.0,5.0,90,0.00,,,0.17,Wunderground v.1.15,2013-05-11 22:25:00,
2013-05-11 18:30:00,59.9,57.3,29.91,West,279,0.0,5.0,91,0.00,,,0.17,Wunderground v.1.15,2013-05-11 22:30:00,
2013-05-11 18:35:00,59.8,56.9,29.90,West,279,0.0,5.0,90,0.00,,,0.17,Wunderground v.1.15,2013-05-11 22:35:00,
2013-05-11 18:40:00,59.8,56.6,29.90,West,261,0.0,5.0,89,0.00,,,0.17,Wunderground v.1.15,2013-05-11 22:40:00,
2013-05-11 18:45:00,59.7,56.8,29.90,West,261,0.0,5.0,90,0.00,,,0.17,Wunderground v.1.15,2013-05-11 22:45:00,
2013-05-11 18:50:00,59.6,56.4,29.89,South,176,0.0,5.0,89,0.00,,,0.17,Wunderground v.1.15,2013-05-11 22:50:00,
2013-05-11 18:55:00,59.6,56.4,29.89,South,176,0.0,5.0,89,0.00,,,0.17,Wunderground v.1.15,2013-05-11 22:55:00,
2013-05-11 19:05:00,59.8,55.9,29.90,SSW,196,1.0,5.0,87,0.00,,,0.17,Wunderground v.1.15,2013-05-11 23:05:00,
2013-05-11 19:10:00,60.1,56.2,29.90,SSW,197,1.0,5.0,87,0.00,,,0.17,Wunderground v.1.15,2013-05-11 23:10:00,
2013-05-11 19:15:00,60.3,56.4,29.90,ESE,114,1.0,1.0,87,0.00,,,0.17,Wunderground v.1.15,2013-05-11 23:15:00,
2013-05-11 19:25:00,60.2,55.3,29.91,SSE,155,0.0,5.0,84,0.00,,,0.17,Wunderground v.1.15,2013-05-11 23:25:00,
2013-05-11 19:30:00,60.2,55.0,29.91,SSE,155,0.0,5.0,83,0.00,,,0.17,Wunderground v.1.15,2013-05-11 23:30:00,
2013-05-11 19:35:00,60.3,55.8,29.91,SSE,155,0.0,5.0,85,0.00,,,0.17,Wunderground v.1.15,2013-05-11 23:35:00,
2013-05-11 19:40:00,60.3,56.1,29.92,SSE,155,0.0,5.0,86,0.00,,,0.18,Wunderground v.1.15,2013-05-11 23:40:00,
2013-05-11 19:45:00,60.0,56.4,29.92,SSE,155,0.0,5.0,88,0.00,,,0.18,Wunderground v.1.15,2013-05-11 23:45:00,
2013-05-11 19:50:00,59.7,56.1,29.91,SSE,155,0.0,5.0,88,0.00,,,0.18,Wunderground v.1.15,2013-05-11 23:50:00,
2013-05-11 19:55:00,59.4,55.8,29.91,SW,221,0.0,5.0,88,0.04,,,0.19,Wunderground v.1.15,2013-05-11 23:55:00,
2013-05-11 20:05:00,58.9,55.7,29.91,SW,221,0.0,5.0,89,0.04,,,0.19,Wunderground v.1.15,2013-05-12 00:05:00,
2013-05-11 20:10:00,58.8,55.9,29.91,SW,221,0.0,5.0,90,0.04,,,0.19,Wunderground v.1.15,2013-05-12 00:10:00,
2013-05-11 20:15:00,58.5,55.9,29.92,SW,221,0.0,5.0,91,0.00,,,0.20,Wunderground v.1.15,2013-05-12 00:15:00,
2013-05-11 20:20:00,58.3,56.0,29.92,SW,221,0.0,5.0,92,0.00,,,0.20,Wunderground v.1.15,2013-05-12 00:20:00,
2013-05-11 20:25:00,58.1,55.5,29.91,SW,221,0.0,5.0,91,0.00,,,0.20,Wunderground v.1.15,2013-05-12 00:25:00,
2013-05-11 20:30:00,58.2,55.3,29.91,SW,221,0.0,5.0,90,0.00,,,0.20,Wunderground v.1.15,2013-05-12 00:30:00,
2013-05-11 20:40:00,58.4,55.5,29.92,ESE,104,0.0,5.0,90,0.00,,,0.20,Wunderground v.1.15,2013-05-12 00:40:00,
2013-05-11 20:45:00,58.4,55.5,29.92,ESE,104,0.0,5.0,90,0.00,,,0.20,Wunderground v.1.15,2013-05-12 00:45:00,
2013-05-11 20:55:00,58.0,55.7,29.91,East,96,0.0,5.0,92,0.00,,,0.20,Wunderground v.1.15,2013-05-12 00:55:00,
2013-05-11 21:05:00,58.1,55.5,29.91,SE,137,0.0,5.0,91,0.00,,,0.20,Wunderground v.1.15,2013-05-12 01:05:00,
2013-05-11 21:15:00,58.4,54.9,29.91,SE,137,0.0,5.0,88,0.00,,,0.20,Wunderground v.1.15,2013-05-12 01:15:00,
2013-05-11 21:20:00,58.7,54.8,29.92,SSE,163,1.0,5.0,87,0.00,,,0.20,Wunderground v.1.15,2013-05-12 01:20:00,
2013-05-11 21:25:00,58.9,55.7,29.92,SSE,163,1.0,1.0,89,0.00,,,0.20,Wunderground v.1.15,2013-05-12 01:25:00,
2013-05-11 21:30:00,58.7,55.5,29.92,SSE,163,0.0,5.0,89,0.00,,,0.20,Wunderground v.1.15,2013-05-12 01:30:00,
2013-05-11 21:35:00,58.5,55.0,29.92,SSE,163,0.0,5.0,88,0.00,,,0.20,Wunderground v.1.15,2013-05-12 01:35:00,
2013-05-11 21:40:00,58.7,54.5,29.92,South,169,1.0,5.0,86,0.00,,,0.20,Wunderground v.1.15,2013-05-12 01:40:00,
2013-05-11 21:45:00,59.0,55.1,29.92,SW,214,1.0,5.0,87,0.00,,,0.20,Wunderground v.1.15,2013-05-12 01:45:00,
2013-05-11 21:55:00,59.3,54.8,29.92,SSW,211,1.0,1.0,85,0.00,,,0.20,Wunderground v.1.15,2013-05-12 01:55:00,
2013-05-11 22:05:00,59.2,55.3,29.92,South,171,0.0,5.0,87,0.00,,,0.20,Wunderground v.1.15,2013-05-12 02:05:00,
2013-05-11 22:10:00,59.0,55.8,29.93,South,171,0.0,5.0,89,0.00,,,0.20,Wunderground v.1.15,2013-05-12 02:10:00,
2013-05-11 22:15:00,58.6,55.4,29.93,South,171,0.0,5.0,89,0.00,,,0.20,Wunderground v.1.15,2013-05-12 02:15:00,
2013-05-11 22:20:00,58.4,55.2,29.92,South,171,0.0,5.0,89,0.00,,,0.20,Wunderground v.1.15,2013-05-12 02:20:00,
2013-05-11 22:25:00,58.3,55.1,29.93,South,171,0.0,5.0,89,0.00,,,0.20,Wunderground v.1.15,2013-05-12 02:25:00,
2013-05-11 22:30:00,58.3,55.4,29.93,South,171,0.0,5.0,90,0.00,,,0.20,Wunderground v.1.15,2013-05-12 02:30:00,
2013-05-11 22:35:00,58.2,55.3,29.94,South,171,0.0,5.0,90,0.00,,,0.20,Wunderground v.1.15,2013-05-12 02:35:00,
2013-05-11 22:40:00,58.3,55.4,29.94,SE,136,1.0,5.0,90,0.00,,,0.20,Wunderground v.1.15,2013-05-12 02:40:00,
2013-05-11 22:45:00,58.4,55.8,29.95,SE,126,1.0,5.0,91,0.00,,,0.20,Wunderground v.1.15,2013-05-12 02:45:00,
2013-05-11 22:50:00,58.4,56.1,29.94,SE,132,1.0,5.0,92,0.00,,,0.20,Wunderground v.1.15,2013-05-12 02:50:00,
2013-05-11 22:55:00,58.3,56.3,29.95,SSE,167,1.0,5.0,93,0.00,,,0.20,Wunderground v.1.15,2013-05-12 02:55:00,
2013-05-11 23:05:00,57.7,55.7,29.95,South,185,2.0,2.0,93,0.00,,,0.20,Wunderground v.1.15,2013-05-12 03:05:00,
2013-05-11 23:10:00,57.4,55.4,29.95,SE,144,2.0,5.0,93,0.00,,,0.20,Wunderground v.1.15,2013-05-12 03:10:00,
2013-05-11 23:15:00,57.1,54.8,29.95,SSE,148,1.0,5.0,92,0.00,,,0.20,Wunderground v.1.15,2013-05-12 03:15:00,
2013-05-11 23:20:00,56.9,54.6,29.95,SSW,196,2.0,5.0,92,0.00,,,0.20,Wunderground v.1.15,2013-05-12 03:20:00,
2013-05-11 23:25:00,56.6,54.3,29.96,South,171,1.0,5.0,92,0.00,,,0.20,Wunderground v.1.15,2013-05-12 03:25:00,
2013-05-11 23:30:00,56.4,54.1,29.95,SSE,163,1.0,5.0,92,0.00,,,0.20,Wunderground v.1.15,2013-05-12 03:30:00,
2013-05-11 23:35:00,56.2,54.2,29.95,SSE,164,1.0,5.0,93,0.00,,,0.20,Wunderground v.1.15,2013-05-12 03:35:00,
2013-05-11 23:40:00,56.0,54.0,29.96,SSW,213,1.0,5.0,93,0.00,,,0.20,Wunderground v.1.15,2013-05-12 03:40:00,
2013-05-11 23:45:00,55.8,53.5,29.95,SSE,149,2.0,5.0,92,0.00,,,0.20,Wunderground v.1.15,2013-05-12 03:45:00,
2013-05-11 23:50:00,55.6,53.3,29.96,South,184,2.0,5.0,92,0.00,,,0.20,Wunderground v.1.15,2013-05-12 03:50:00,
2013-05-11 23:55:00,55.5,53.2,29.96,South,178,2.0,5.0,92,0.00,,,0.20,Wunderground v.1.15,2013-05-12 03:55:00,